KEUL

Caldwell Industrial

Airport
ICAO code
KEUL
Summary
ICAO Region
NAM
ICAO Territory
Location

Caldwell, Canyon County, Idaho,

Elevation
2432 ft
Coordinates
43° 38' 28" N , 116° 38' 6" W
KCC
Airport CFIT
Altimeter Temperature Error Correction
Metar
Observation
KEUL 062156Z AUTO 00000KT 9SM OVC065 02/M01 A3013 RMK AO2 SLP225 T00171011 FZRANO
Station
Caldwell, Caldwell Industrial Airport
Date/Time
2022-12-06 21:56:00
Wind direction
Wind speed
00 kts
Lowest cloud amount
overcast
Temperature
1.7°C
Dew point
-1.1°C
Humidity
81%
Weather condition
n/a

Description

Caldwell Industrial Airport is a city-owned public-use airport located 5 km southeast of the central business district of Caldwell, a city in Canyon County, Idaho, United States.

Climatology

Cold Semi-arid climate (Köppen climate classification BSk). - Hot, sometimes extremely hot summers and cold, sometimes very cold winters. Some snowfall during the winter. Areas featuring cold semi-arid climates are sometimes subject to major temperature swings during a 24 hour period.

Airport map

Aerial View

SKYbrary Partners:

Safety knowledge contributed by: